Content
SEND FEEDBACK

Daily
Averages
Monthly
Summary
United States of America

GRAND TOWER, ILLINOIS


Home > North America > United States > Illinois
Elevation: 370 feet     Latitude: 37 40N     Longitude: 089 31W

WEATHER
 
SELECT A DAY
Number of Records: 199,619;   Date Range: 1/1/95 - 7/23/14
 
SHARE

PRINT THIS DATA

[ ← Previous Day ]
WEATHER ALMANAC - FEBRUARY 13, 2013
[ Next Day → ]
[ °C ]   °F
Weather ElementAverageHighLow
Temperature41.5 °F52 °F (2:52 pm)36 °F (10:52 pm)
Dewpoint33.6 °F36 °F (10:52 am)28 °F (2:52 pm)
Humidity75.4 %87 % (4:45 am)40 % (2:52 pm)
Barometer29.90 in29.94 in (8:52 am)29.86 in (2:52 pm)
Wind Speed6.6 mph10.4 mph (4:14 am)
Wind Gust29.9 mph (7:18 am)
Weather ElementAverage
Visibility7.7 mi
Wind DirectionSW (221.2 °)

Weather ElementTotal
Precipitation0.14 in
Heating Degree Days21 (Base 65)
Averaged from 34 records on February 13, 2013
WEATHER CONDITIONS BREAKOUT
WIND DIRECTION BREAKOUT
WEATHER BY HOUR - FEBRUARY 13, 2013
[ °C ]   °F
Local TimeTemperatureDewpointHumidityBarometerVisibilityWind DirectionWind SpeedGust SpeedPrecipitationEventsConditions
1:52 AM42.1 °F30.9 °F65 %29.91 in10.0 miNorth (350°)6.9 mphOvercast
2:52 AM41.0 °F32.0 °F70 %29.89 in10.0 miNorth (350°)4.6 mphOvercast
3:52 AM39.9 °F33.1 °F77 %29.89 in9.0 miNNW (340°)9.2 mph0.00 inRainLight Rain
4:14 AM39.2 °F33.8 °F81 %29.89 in7.0 miNNW (340°)10.4 mph0.00 inRainLight Rain
4:45 AM37.4 °F33.8 °F87 %29.88 in5.0 miNNW (340°)8.1 mph0.01 inRainLight Rain
4:52 AM37.9 °F34.0 °F86 %29.89 in6.0 miNNW (340°)5.8 mph0.02 inRainLight Rain
5:00 AM37.4 °F33.8 °F87 %29.88 in6.0 miNorth (350°)8.1 mph0.00 inRainLight Rain
5:52 AM37.9 °F34.0 °F86 %29.89 in6.0 miCalm0.02 inRainLight Rain
6:35 AM37.4 °F33.8 °F87 %29.88 in8.0 miCalm0.01 inRainLight Rain
6:52 AM37.9 °F34.0 °F86 %29.90 in7.0 miCalm0.01 inRainLight Rain
7:09 AM37.4 °F33.8 °F87 %29.89 in5.0 miNorth0.00 inRainLight Rain
7:18 AM37.4 °F33.8 °F87 %29.90 in3.0 miNW (320°)9.2 mph29.9 mph0.01 inRainLight Rain
7:37 AM37.4 °F33.8 °F87 %29.90 in2.5 miNNW (330°)9.2 mph0.02 inRainLight Rain
7:52 AM37.9 °F34.0 °F86 %29.92 in2.5 miNNW (330°)8.1 mph0.02 inRainLight Rain
8:35 AM37.4 °F33.8 °F87 %29.93 in3.0 miNW (320°)6.9 mph0.01 inRainLight Rain
8:52 AM37.9 °F34.0 °F86 %29.94 in3.0 miNW (320°)5.8 mph0.01 inRainLight Rain
9:44 AM39.2 °F35.6 °F87 %29.93 in5.0 miWSW (240°)3.5 mph0.00 inHaze
9:52 AM39.9 °F35.1 °F83 %29.94 in6.0 miWSW (240°)3.5 mph0.00 inHaze
10:52 AM44.1 °F36.0 °F73 %29.93 in9.0 miCalmScattered Clouds
11:04 AM44.6 °F35.6 °F71 %29.92 in10.0 miVariable4.6 mphOvercast
11:37 AM46.4 °F35.6 °F66 %29.91 in10.0 miWSW (240°)8.1 mphOvercast
11:52 AM46.9 °F35.1 °F63 %29.91 in10.0 miWSW (240°)8.1 mphScattered Clouds
12:52 PM48.9 °F32.0 °F52 %29.89 in10.0 miWest (260°)6.9 mphPartly Cloudy
1:52 PM51.1 °F28.9 °F43 %29.87 in10.0 miSW (230°)10.4 mphPartly Cloudy
2:52 PM52.0 °F28.0 °F40 %29.86 in10.0 miWSW (240°)10.4 mphClear
3:52 PM52.0 °F28.9 °F41 %29.86 in10.0 miSW (230°)5.8 mphClear
4:52 PM48.9 °F34.0 °F56 %29.86 in10.0 miSouth (180°)9.2 mphClear
5:52 PM45.0 °F35.1 °F68 %29.87 in10.0 miSouth (190°)10.4 mphClear
6:52 PM43.0 °F36.0 °F76 %29.88 in10.0 miSSW (200°)10.4 mphClear
7:52 PM42.1 °F35.1 °F76 %29.89 in10.0 miSSW (210°)10.4 mphClear
8:52 PM39.0 °F34.0 °F82 %29.91 in10.0 miSSW (200°)6.9 mphClear
9:52 PM39.9 °F35.1 °F83 %29.92 in10.0 miSSW (210°)5.8 mphClear
10:52 PM36.0 °F32.0 °F86 %29.92 in10.0 miSouth (190°)5.8 mphClear
11:52 PM37.0 °F33.1 °F86 %29.92 in10.0 miSouth (190°)6.9 mphClear
Hourly data recorded from KMDH, located miles away from Grand Tower, Illinois







STORIES FROM OUR PARTNERS